Location: Goettingen
(51.5300°N, 9.9433°E)
Time: 19:55:03
(UTC+01:00)

ISS - Pass Details

Date: 16 December 2017
Orbit: 402 x 407 km, 51.6° (Epoch: 11 December)

Event Time Altitude Azimuth Distance (km) Brightness Sun altitude
Rises 17:01:00 0° 283° (WNW) 2,332 0.8 -7.3°
Reaches altitude 10° 17:03:14 10° 272° (W) 1,468 0.1 -7.6°
Maximum altitude 17:06:08 29° 211° (SSW) 781 -1.6 -8.0°
Drops below altitude 10° 17:09:01 10° 149° (SSE) 1,460 -1.0 -8.4°
Sets 17:11:14 0° 138° (SE) 2,316 -0.1 -8.7°
